TimeEDT,TemperatureF,Dew PointF,Humidity,Sea Level PressureIn,VisibilityMPH,Wind Direction,Wind SpeedMPH,Gust SpeedMPH,PrecipitationIn,Events,Conditions,WindDirDegrees,DateUTC
12:56 AM,69.1,64.0,84,30.12,10.0,NE,6.9,-,N/A,,Clear,40,2013-06-20 04:56:00
1:56 AM,66.9,64.0,90,30.12,10.0,North,4.6,-,N/A,,Scattered Clouds,360,2013-06-20 05:56:00
2:56 AM,66.0,63.0,90,30.12,10.0,North,4.6,-,N/A,,Partly Cloudy,360,2013-06-20 06:56:00
3:56 AM,64.9,63.0,93,30.12,9.0,North,9.2,-,N/A,,Clear,10,2013-06-20 07:56:00
4:42 AM,64.4,62.6,94,30.11,9.0,North,11.5,-,N/A,,Partly Cloudy,10,2013-06-20 08:42:00
5:34 AM,64.4,62.6,94,30.13,9.0,North,8.1,-,N/A,,Scattered Clouds,360,2013-06-20 09:34:00
5:43 AM,64.4,62.6,94,30.13,8.0,North,9.2,-,N/A,,Mostly Cloudy,10,2013-06-20 09:43:00
5:56 AM,64.9,63.0,93,30.14,8.0,NNE,8.1,-,N/A,,Mostly Cloudy,20,2013-06-20 09:56:00
6:56 AM,64.9,63.0,93,30.16,7.0,NNE,8.1,-,N/A,,Mostly Cloudy,20,2013-06-20 10:56:00
7:56 AM,66.9,64.0,90,30.18,9.0,NNE,15.0,-,N/A,,Mostly Cloudy,20,2013-06-20 11:56:00
8:46 AM,69.8,64.4,83,30.19,10.0,NNE,9.2,-,N/A,,Overcast,30,2013-06-20 12:46:00
8:56 AM,71.1,64.9,81,30.20,10.0,NNE,9.2,-,N/A,,Mostly Cloudy,30,2013-06-20 12:56:00
9:12 AM,71.6,64.4,78,30.19,10.0,NNE,10.4,-,N/A,,Partly Cloudy,30,2013-06-20 13:12:00
9:56 AM,75.0,64.9,71,30.19,10.0,NE,11.5,-,N/A,,Scattered Clouds,40,2013-06-20 13:56:00
10:56 AM,78.1,63.0,60,30.21,10.0,NE,9.2,-,N/A,,Clear,50,2013-06-20 14:56:00
11:56 AM,80.1,62.1,54,30.21,10.0,ENE,11.5,-,N/A,,Clear,60,2013-06-20 15:56:00
12:56 PM,82.0,62.1,51,30.20,10.0,NE,8.1,-,N/A,,Partly Cloudy,50,2013-06-20 16:56:00
1:56 PM,82.9,57.9,42,30.20,10.0,NE,13.8,18.4,N/A,,Partly Cloudy,40,2013-06-20 17:56:00
3:56 PM,84.0,57.0,40,30.18,10.0,NE,10.4,-,N/A,,Clear,40,2013-06-20 19:56:00
4:56 PM,84.0,55.9,38,30.17,10.0,ENE,10.4,-,N/A,,Clear,60,2013-06-20 20:56:00
5:56 PM,82.0,55.9,41,30.17,10.0,NNE,11.5,-,N/A,,Clear,30,2013-06-20 21:56:00
6:56 PM,79.0,55.0,44,30.18,10.0,NNE,12.7,-,N/A,,Clear,20,2013-06-20 22:56:00
7:56 PM,75.9,55.0,48,30.19,10.0,NNE,9.2,-,N/A,,Clear,30,2013-06-20 23:56:00
8:56 PM,73.0,55.0,53,30.20,10.0,NNE,10.4,-,N/A,,Scattered Clouds,20,2013-06-21 00:56:00
9:56 PM,72.0,54.0,53,30.22,10.0,NNE,9.2,-,N/A,,Clear,20,2013-06-21 01:56:00
10:56 PM,69.1,57.0,65,30.22,10.0,NNE,10.4,-,N/A,,Clear,20,2013-06-21 02:56:00
11:56 PM,68.0,59.0,73,30.23,10.0,NNE,8.1,-,N/A,,Clear,20,2013-06-21 03:56:00